Simultaneous Nadir Overpasses (SNOs) Predictions

Prediction of SNOs between GOES-16 and METOP-B Satellite Orbit:

Table of predicted SNOs for the next 14.0 days since TLE Epoch: 4/29/2023
Index Date Time (GOES-16) GOES-16 Lat,Lon METOP-B Lat,Lon Distance(km) Time Diff (sec)
1 04/30/2023 14:34:47 0.04, -75.19 0.33, -76.49 148.83 80
2 05/01/2023 14:16:46 0.04, -75.19 -0.75, -71.49 420.96 80
3 05/03/2023 02:35:46 -0.04, -75.20 -0.22, -76.10 102.09 80
4 05/04/2023 02:12:26 -0.04, -75.21 0.87, -71.10 467.96 80
5 05/05/2023 14:31:16 0.04, -75.22 0.16, -75.65 49.99 80
6 05/08/2023 02:32:16 -0.03, -75.24 -0.04, -75.26 2.58 80
7 05/10/2023 14:30:27 0.02, -75.26 -0.10, -74.83 49.62 80
8 05/12/2023 02:49:26 -0.02, -75.28 -0.92, -79.43 472.63 80
9 05/13/2023 02:26:06 -0.01, -75.29 0.18, -74.43 98.04 80
